Wind_Speed
70 70 69 70 70 69 68 65 61 58 58 58 58 57 56 55 56 55 54 53 51 50 48 47 47 47 45 44 43 44 44 45 44 44 44 44 43 43 44 44 43 42 43 43 44 45 45 44 43 40 38 35 34 34 34 34 35 35 35 35 35 35 36 38 39 40 40 40 41 42 43 43 44 45 44 42 41 41 41 41 41 41 41 41 40 39
71 70 71 72 71 69 67 65 62 61 61 61 61 61 60 59 58 57 56 54 53 51 50 48 48 49 49 45 44 44 45 46 46 45 45 44 45 45 45 44 43 43 44 44 45 46 46 46 45 43 41 38 36 35 35 35 35 35 35 35 35 35 36 37 38 40 41 41 42 43 43 44 45 45 45 44 42 41 41 41 41 41 41 41 40 39
72 72 73 73 71 69 68 66 65 65 65 65 65 65 64 62 60 58 57 56 54 52 50 48 48 51 50 46 45 44 46 48 47 46 46 46 47 47 45 44 43 44 45 46 47 48 48 47 46 45 44 42 39 38 37 36 36 36 35 35 35 35 36 37 38 39 40 41 42 43 43 44 45 45 45 45 44 43 42 42 42 42 41 41 40 39
75 76 76 74 72 71 70 69 68 67 68 69 69 68 67 65 63 61 59 58 56 53 51 48 48 51 51 48 47 47 47 49 48 48 48 48 48 47 45 45 45 45 46 47 49 50 50 48 47 47 45 44 43 41 40 39 38 37 37 36 37 37 37 38 38 39 40 41 41 42 43 43 44 45 46 45 45 45 44 43 42 42 42 41 41 40
77 77 76 75 74 74 72 72 71 70 70 71 71 70 69 68 66 64 62 60 57 53 51 49 48 51 53 51 51 49 48 49 49 50 51 50 49 47 46 47 47 47 48 49 50 51 51 50 49 48 47 47 45 44 43 42 41 40 38 38 38 39 39 39 39 39 40 40 40 41 41 42 43 45 46 46 46 47 46 45 44 42 42 41 42 42
79 78 76 76 76 75 74 73 73 72 72 72 72 71 71 70 68 66 64 61 58 53 51 50 48 50 53 53 53 52 48 48 49 51 53 52 50 49 49 50 49 49 50 51 52 52 52 52 50 50 50 49 48 47 45 45 44 42 40 40 40 41 41 41 41 41 41 41 41 41 41 41 42 43 45 46 48 48 47 47 46 44 43 41 41 43
80 79 77 76 76 75 74 74 73 73 72 71 71 72 71 70 69 68 66 63 58 54 53 51 48 49 54 55 55 53 50 49 50 53 56 55 53 52 52 52 50 51 52 52 52 52 53 52 51 51 51 51 51 50 49 48 47 45 43 42 42 42 42 42 43 43 43 43 43 42 41 41 41 42 43 45 47 48 48 48 47 46 44 43 42 43
81 80 79 78 77 76 75 75 75 74 73 72 71 71 71 70 69 68 67 64 60 57 55 53 51 50 54 58 58 54 52 53 54 56 58 57 55 54 54 53 53 53 54 53 53 53 53 53 53 53 53 53 53 52 51 50 49 47 45 44 44 44 43 44 44 45 46 45 45 44 42 41 41 41 42 43 45 46 47 47 47 46 45 44 43 44
83 82 81 80 80 79 78 77 76 75 75 74 73 73 72 72 70 69 68 66 64 60 57 56 55 52 53 60 61 55 54 55 56 58 58 57 56 55 55 56 56 56 55 54 54 54 54 54 54 54 55 55 54 53 53 52 51 50 48 46 46 45 45 45 46 47 48 47 47 46 44 42 41 41 41 42 43 44 45 46 46 46 46 45 45 45
83 82 82 81 80 80 79 78 77 77 76 76 76 75 75 74 72 71 70 68 66 63 59 59 60 54 52 60 63 57 56 58 59 59 59 59 58 56 57 58 58 58 57 56 55 54 55 55 56 57 57 57 56 55 55 54 53 52 50 49 48 47 47 47 48 48 48 48 48 48 46 44 42 41 41 42 42 42 43 44 45 46 47 47 46 46
83 82 82 81 81 80 80 80 79 79 78 77 77 76 76 75 74 73 71 70 69 64 61 62 63 58 51 56 64 61 59 60 61 61 62 62 61 59 59 59 60 60 59 58 56 55 55 56 58 59 59 59 58 58 57 57 56 55 54 52 50 49 49 49 49 49 49 49 50 50 49 47 45 44 43 43 43 43 43 44 44 45 47 48 49 48
84 83 82 82 82 82 82 82 81 81 80 79 78 78 78 77 76 75 73 73 70 65 64 65 67 62 51 52 63 65 62 62 62 63 63 63 62 62 62 61 61 61 60 58 56 55 56 57 59 60 61 60 60 60 60 60 59 58 57 56 54 51 51 51 52 51 51 51 52 52 51 51 50 48 47 46 46 46 46 45 46 47 48 49 50 51
86 86 85 85 85 85 85 85 84 83 82 81 81 81 81 79 79 77 76 75 72 68 67 68 70 64 53 52 60 66 66 64 63 64 64 63 63 64 64 63 61 60 59 57 56 56 57 59 61 62 62 62 62 62 62 62 61 60 60 59 57 55 53 53 53 53 53 53 53 53 54 54 53 53 51 51 51 50 49 48 48 49 50 51 52 53
89 89 88 87 87 87 87 86 86 86 85 85 85 85 84 83 81 79 78 78 75 72 71 71 71 65 55 53 56 62 69 70 66 65 65 65 66 66 66 64 61 60 59 58 59 60 61 62 62 62 62 63 64 64 64 64 63 63 62 61 60 59 57 56 56 55 55 55 55 56 56 56 56 56 56 55 55 54 53 53 52 52 53 54 55 56
91 91 90 89 89 89 89 89 90 90 90 89 88 88 86 85 83 82 81 81 78 76 74 72 70 65 59 57 57 62 70 73 72 70 68 68 68 68 68 66 64 62 61 62 62 63 63 63 63 64 65 66 66 66 66 65 65 64 64 63 63 62 61 60 59 58 58 57 57 58 59 59 59 59 59 59 58 57 57 57 56 56 56 57 57 58
91 91 91 91 92 91 91 92 93 93 92 91 90 88 86 86 86 85 84 82 80 79 77 74 71 67 64 63 61 62 67 71 73 73 70 70 70 71 70 69 67 65 64 64 64 64 64 64 65 67 68 68 68 67 67 67 67 67 66 65 65 65 64 63 62 61 60 60 60 60 61 61 61 61 61 61 61 61 61 60 60 60 60 60 60 60
94 93 93 94 94 94 94 94 95 95 94 93 91 88 87 88 89 88 85 84 84 83 81 78 74 70 68 66 64 63 64 67 71 73 73 73 72 72 71 69 68 67 66 66 65 65 66 67 68 69 70 70 70 70 70 70 70 69 68 67 67 66 66 66 65 65 63 63 63 63 64 64 64 64 64 64 64 64 64 64 64 63 64 64 63 63
98 97 97 97 97 97 97 97 97 96 95 92 89 88 88 90 90 89 88 87 87 87 84 81 77 73 69 67 65 65 64 66 69 71 74 75 74 72 69 68 68 68 68 68 67 68 69 70 72 73 73 73 72 73 73 72 72 71 70 69 68 68 69 69 69 68 67 67 67 67 67 67 68 68 68 67 67 68 68 68 68 67 67 67 66 66
99 98 97 97 96 96 97 97 96 94 93 91 89 89 91 92 92 92 93 92 91 91 88 83 79 75 70 67 66 66 66 67 68 70 72 74 74 73 71 70 70 70 70 70 70 71 73 75 76 77 77 76 76 76 75 74 73 71 70 70 70 70 71 71 72 72 71 71 70 70 71 71 71 72 72 72 72 72 73 73 72 72 71 70 69 68
100 99 98 97 96 96 96 95 94 92 92 92 93 94 95 96 96 96 96 96 95 93 89 82 77 73 69 67 68 68 67 68 69 69 70 72 72 72 72 72 72 72 72 72 73 75 76 78 79 80 80 80 80 79 78 76 74 72 72 71 71 72 72 73 74 75 75 74 73 74 74 74 74 75 75 75 76 77 77 77 77 76 76 75 73 72
102 101 100 98 98 98 97 96 94 94 96 97 98 99 99 99 99 99 98 97 94 92 88 82 75 69 68 68 68 69 68 68 68 68 68 69 70 72 73 73 73 74 74 75 76 78 80 81 81 82 83 83 83 81 79 77 75 74 74 74 74 74 75 76 77 77 77 76 76 77 77 77 77 77 78 78 80 81 81 81 80 80 80 79 78 77
103 102 101 101 100 99 98 99 99 99 100 101 101 101 99 100 100 99 97 94 91 89 86 83 76 68 67 69 68 68 69 68 68 68 69 70 71 73 75 75 76 76 76 78 79 81 82 83 84 85 85 85 83 82 80 78 77 76 76 76 76 77 78 79 80 80 80 79 79 80 80 79 80 80 80 81 83 84 84 84 84 83 82 82 81 81
106 106 105 104 103 102 102 103 103 103 103 103 102 100 98 97 97 96 94 91 90 89 87 86 80 67 64 67 68 69 70 70 71 71 72 74 74 76 78 79 80 81 81 82 83 84 85 85 86 86 86 85 84 82 81 79 78 78 78 79 79 80 81 82 83 83 83 82 82 82 82 82 82 82 83 85 86 86 87 87 87 86 85 85 85 85
107 107 106 104 103 103 103 104 104 103 102 101 99 96 95 94 93 93 93 92 91 90 87 88 83 70 63 65 66 68 71 73 74 74 76 77 78 80 82 83 85 86 87 87 87 87 87 86 86 85 85 85 85 83 82 81 81 81 81 82 82 83 84 85 85 85 85 85 85 85 85 85 85 85 86 88 89 89 89 90 89 88 88 88 88 88
106 106 105 104 103 103 103 102 101 99 97 95 93 93 92 92 93 94 95 95 94 91 89 90 86 75 70 70 70 72 75 77 79 79 80 81 81 83 85 86 86 87 88 88 88 87 87 86 85 84 84 85 84 83 83 83 83 83 84 84 85 86 87 88 88 88 88 88 87 87 87 88 88 88 89 90 91 92 92 91 91 91 91 91 91 91
108 108 107 106 104 103 101 99 97 96 97 96 95 95 96 97 98 99 99 100 98 93 91 92 87 79 77 77 77 78 80 81 83 84 85 86 85 86 87 87 87 88 89 90 90 89 88 87 86 86 85 85 84 83 83 84 84 84 85 86 87 88 89 90 90 90 90 90 90 90 90 90 90 90 90 91 93 94 93 93 93 93 93 93 93 93
110 110 109 108 106 104 101 101 100 100 102 102 100 99 100 101 101 102 103 102 98 94 94 93 89 84 82 82 83 83 82 82 83 86 88 88 88 88 89 90 91 91 91 91 91 90 90 89 88 87 87 86 85 84 84 85 85 86 86 88 89 90 91 92 92 92 92 92 92 92 92 93 93 92 91 92 94 95 95 95 95 95 96 96 96 96
112 111 110 109 108 106 105 104 104 104 104 104 102 102 103 103 104 105 104 101 98 99 99 95 93 92 89 86 87 87 85 84 84 86 88 89 91 92 93 93 94 93 93 92 91 91 91 91 91 90 89 89 88 87 86 86 87 88 89 90 92 92 93 94 94 94 94 94 94 94 95 95 95 93 92 93 95 97 98 98 97 97 98 98 97 97
112 112 111 110 109 108 108 107 107 107 107 107 107 107 107 107 107 106 104 102 102 105 102 97 98 99 93 89 89 89 87 87 87 87 88 91 95 98 98 97 95 95 95 94 93 93 94 94 94 94 93 92 91 89 88 88 89 90 91 92 93 94 95 96 96 96 96 96 96 96 96 96 96 96 95 95 97 99 100 100 99 99 99 99 98 98
113 112 112 111 111 111 110 109 109 109 110 110 110 110 110 109 108 107 105 105 106 108 105 101 101 101 96 91 90 88 88 89 91 93 93 93 96 98 99 98 97 96 96 96 96 97 97 97 97 96 95 94 93 92 91 91 92 93 93 94 95 96 97 98 98 98 98 98 98 98 98 98 98 98 98 97 98 100 101 101 101 100 100 100 100 100
115 114 114 114 114 113 113 112 112 112 112 113 113 112 111 109 108 107 107 107 109 109 107 105 105 103 98 95 93 92 92 93 94 95 95 94 95 96 98 98 98 98 98 97 97 97 97 98 98 97 96 96 96 95 95 94 95 95 96 96 97 98 99 99 99 100 100 100 100 101 101 100 100 100 100 100 100 100 101 102 102 102 102 103 103 103
118 118 117 118 117 116 115 115 115 116 117 117 115 113 110 109 108 108 109 110 110 110 110 110 109 104 99 98 98 97 96 96 94 94 95 96 98 98 98 97 98 98 98 97 97 97 98 99 99 99 99 99 99 99 99 98 98 98 99 99 100 101 102 102 102 102 103 103 103 103 103 103 102 102 102 103 102 102 102 103 104 104 104 104 104 104
123 122 121 122 121 120 119 119 120 121 123 122 118 112 109 109 110 111 112 112 112 113 114 113 111 106 102 102 101 99 98 98 97 97 98 99 100 99 98 98 99 99 100 100 100 101 101 102 102 103 103 104 104 104 103 103 102 102 103 103 103 104 104 104 104 104 104 105 106 106 106 106 106 105 105 106 106 105 105 105 105 105 105 104 104 103
126 125 124 125 125 124 123 123 124 126 127 124 118 113 112 113 114 115 114 113 113 114 115 115 112 110 107 105 104 103 103 104 104 103 103 102 101 101 101 101 102 102 102 103 104 104 104 104 105 105 105 106 107 107 107 106 105 105 105 105 105 105 105 105 106 106 106 107 108 108 108 109 109 109 109 109 108 108 107 107 107 107 106 105 105 104
127 127 127 127 127 126 126 127 128 129 128 124 119 117 117 118 119 119 118 116 116 117 118 118 116 114 111 110 109 109 109 110 110 109 107 107 106 106 106 106 106 106 106 107 108 108 108 108 108 107 108 108 108 108 108 107 107 106 106 106 107 107 107 107 108 108 109 109 109 110 110 110 110 110 110 110 110 109 109 109 108 108 107 106 105 104
128 128 128 128 128 128 129 130 130 130 127 124 122 121 120 120 121 122 122 121 121 121 122 121 120 117 115 113 112 112 112 112 112 112 111 111 111 110 110 109 109 109 108 109 110 110 110 110 110 109 109 109 109 109 109 109 109 108 108 109 109 109 109 109 109 110 110 111 111 111 111 110 110 110 110 110 110 110 110 109 108 107 106 104 103 101
127 128 128 129 129 129 130 131 131 131 128 124 121 120 120 121 123 126 126 125 124 124 124 123 121 120 119 117 116 114 114 113 113 113 112 112 112 111 110 110 110 109 109 109 110 110 111 111 111 111 111 111 111 111 110 110 110 110 110 110 110 110 110 110 110 110 110 110 111 111 111 110 110 110 109 109 109 108 107 106 104 103 101 99 98 97
127 128 129 129 129 130 131 132 133 132 129 123 119 118 119 122 124 127 128 127 126 125 125 124 124 123 122 121 120 118 117 117 116 116 115 114 113 112 111 111 110 110 110 110 110 111 111 112 112 112 112 112 112 112 111 111 110 110 110 111 111 110 110 110 110 110 109 109 109 109 109 109 108 107 107 106 105 104 103 101 100 98 97 96 95 95
127 128 129 130 130 131 131 132 133 131 127 123 120 120 122 123 125 127 129 128 126 125 124 125 125 125 125 124 122 121 120 119 118 118 117 116 116 115 114 113 112 111 111 111 110 110 110 110 111 111 112 112 111 111 110 110 109 109 108 109 109 109 109 109 108 107 106 106 105 104 104 104 103 103 101 100 100 99 98 97 97 96 95 95 94 94
124 126 127 128 128 128 128 129 130 129 125 121 119 120 122 124 126 128 128 127 124 123 123 124 124 124 124 123 122 121 119 118 117 117 116 116 115 115 114 113 113 112 111 111 110 109 108 107 107 107 108 108 108 108 107 106 105 104 104 103 103 103 103 102 101 100 100 99 99 98 98 98 98 97 97 97 96 96 96 96 96 96 96 96 96 96
120 121 122 123 124 125 125 126 127 125 122 118 116 116 119 123 125 126 125 123 121 120 121 122 122 122 121 120 119 118 116 115 113 112 111 110 110 110 110 109 109 108 107 107 106 105 104 103 102 102 102 103 103 103 102 101 99 98 97 96 96 96 96 95 95 95 95 95 94 95 95 95 95 96 96 96 97 97 97 97 97 98 98 98 99 99
115 116 117 118 119 120 121 122 123 121 116 111 109 111 115 119 121 121 119 118 117 117 116 116 116 116 116 114 113 112 111 110 109 107 105 104 102 102 102 101 100 100 99 98 98 98 97 96 95 95 95 95 96 96 95 94 93 92 92 92 93 93 93 93 93 94 95 95 95 96 97 97 98 98 99 99 100 100 100 100 101 101 101 101 101 102
113 114 115 115 115 116 117 118 119 115 108 104 103 106 111 114 116 115 113 112 112 112 112 111 111 112 111 110 109 108 107 107 106 105 104 102 100 99 99 98 97 96 96 95 94 93 92 91 90 90 91 92 93 93 92 92 91 91 93 94 96 96 96 96 97 97 98 98 99 100 100 101 101 102 102 103 103 104 104 104 104 104 104 104 104 104
115 115 114 113 113 115 116 117 116 112 108 105 105 107 109 111 113 113 112 112 112 113 112 112 112 111 111 110 110 109 108 107 107 106 105 104 103 102 101 100 100 99 98 97 96 95 93 92 91 92 92 94 95 96 96 96 95 96 97 99 100 101 100 101 101 101 102 102 103 103 104 104 105 105 105 106 106 106 107 107 107 107 107 107 108 108
116 116 116 115 116 117 117 117 116 114 112 111 109 110 112 113 114 115 115 115 116 115 115 114 114 113 112 111 111 110 110 109 108 107 106 105 105 104 103 102 101 100 100 99 98 98 96 95 94 94 95 96 98 99 100 99 99 99 100 101 103 103 103 103 104 104 104 105 105 106 106 107 107 107 108 108 109 109 109 110 110 110 111 111 111 111
118 117 118 118 118 118 118 117 116 115 115 114 114 114 115 116 116 116 116 117 117 116 116 115 115 114 113 112 111 111 111 110 109 108 107 105 105 104 104 103 102 101 101 100 100 100 99 98 97 96 96 97 99 101 101 101 101 101 101 102 103 103 104 104 104 105 105 106 106 107 107 108 108 109 110 110 110 111 111 111 112 113 113 114 115 115
120 119 119 120 120 120 119 118 117 118 118 118 118 118 118 118 118 117 117 117 117 117 117 116 116 115 114 113 112 111 111 111 110 109 108 107 106 106 105 105 105 104 104 104 104 104 104 103 102 101 101 101 103 105 106 105 105 105 105 105 106 107 107 108 108 108 109 109 110 111 111 111 112 113 114 114 115 115 115 116 116 117 117 117 118 118
124 124 124 124 123 122 121 121 121 121 122 122 122 122 121 121 120 119 119 119 119 119 118 118 118 117 116 116 114 113 113 113 112 111 110 110 110 110 110 109 109 109 109 110 110 111 110 109 109 108 108 108 110 112 112 112 112 113 113 113 113 113 114 114 115 116 117 118 119 119 119 119 120 120 120 121 121 122 122 121 121 121 121 120 120 119
128 129 128 127 126 125 124 124 125 126 126 127 127 127 125 124 123 122 122 122 121 122 122 121 121 120 120 119 118 117 116 116 115 114 114 114 114 115 115 115 115 114 114 115 116 116 116 115 115 114 114 115 116 117 118 119 120 121 121 122 122 121 122 122 123 123 124 125 125 126 126 126 126 125 125 125 125 124 124 123 122 121 121 120 119 118
132 131 131 131 130 130 129 129 130 131 131 131 131 130 129 128 127 126 126 126 126 126 126 126 125 125 124 123 122 121 121 120 120 119 118 118 118 119 120 120 120 120 120 121 121 121 121 121 121 120 120 120 122 123 124 125 126 128 129 129 129 128 128 128 128 128 128 128 128 128 127 127 126 125 124 123 123 122 120 119 119 118 117 116 115 114
134 135 135 135 135 135 134 134 135 135 135 135 135 135 134 133 132 131 131 131 131 131 131 130 130 129 129 128 127 126 126 125 125 124 123 122 123 123 124 124 124 125 126 127 127 127 127 128 127 127 127 127 127 128 128 129 130 131 132 132 131 130 129 129 128 128 127 126 126 125 124 123 121 120 119 118 117 116 115 114 114 114 113 112 111 110
Wind_Direction
237 237 237 238 238 240 241 241 241 242 242 241 242 245 249 252 255 257 259 261 262 264 266 269 272 273 273 274 277 279 281 283 286 290 292 293 291 289 290 293 296 298 300 302 305 307 309 311 313 316 316 312 309 307 305 302 300 299 299 301 301 302 302 302 302 302 302 303 303 303 303 303 304 304 305 306 307 307 307 307 307 307 306 305 304 304
237 237 238 238 239 240 242 242 242 242 243 243 244 246 249 253 256 258 259 260 261 262 265 267 269 271 272 274 276 278 281 283 286 288 289 289 288 288 290 292 293 295 298 300 302 305 307 309 311 313 313 312 308 306 304 302 300 299 299 299 300 301 301 301 301 301 302 302 303 303 304 304 304 304 304 305 306 307 307 307 307 306 305 304 304 303
236 237 237 238 240 241 242 242 242 243 244 245 246 247 250 252 255 257 258 258 259 260 263 265 267 269 272 274 275 277 279 282 285 285 286 287 287 288 289 289 289 293 296 299 300 302 305 306 308 310 311 310 308 305 304 303 302 300 299 299 299 299 299 300 300 300 300 301 302 302 303 303 303 303 303 304 306 306 306 306 306 305 304 303 302 302
236 237 238 239 240 241 242 243 243 244 245 246 247 249 250 252 254 256 257 257 257 258 260 262 265 268 271 273 274 275 278 280 282 283 285 286 286 286 285 285 287 292 295 296 298 301 303 304 306 307 308 308 307 306 304 304 303 302 301 299 299 298 298 298 299 299 300 300 301 302 302 303 303 303 303 304 305 305 305 305 304 304 304 303 301 301
237 238 240 241 242 243 244 244 245 245 246 247 248 249 251 252 254 255 256 255 256 257 259 260 263 268 271 273 274 275 276 278 281 282 283 284 284 283 282 284 287 291 293 294 297 299 301 302 304 305 306 306 306 305 305 304 304 304 303 301 299 298 298 298 298 298 298 298 299 300 301 302 302 303 304 304 304 304 304 304 303 303 302 302 301 300
238 240 241 242 243 244 244 245 245 245 246 247 248 250 251 252 253 255 255 255 256 257 258 260 262 267 271 272 273 274 274 276 279 281 281 282 282 281 281 283 287 290 291 294 296 297 299 301 302 303 304 305 306 305 305 304 304 304 303 301 298 298 298 298 297 296 296 295 296 297 298 299 300 301 303 304 304 304 303 303 303 302 302 301 300 299
239 240 241 242 243 243 244 244 245 245 246 247 249 250 251 252 253 254 254 254 255 256 257 260 263 266 269 271 271 273 275 276 277 278 279 281 281 280 280 282 285 288 291 292 294 295 297 298 299 301 302 303 304 304 304 303 303 303 302 300 298 298 298 297 295 294 294 294 295 295 297 297 298 298 299 301 301 302 302 302 302 302 301 300 298 297
239 240 240 241 241 242 243 244 245 246 247 248 250 251 252 253 253 253 253 253 255 256 258 261 263 264 268 270 271 273 276 276 276 276 278 280 280 278 279 282 285 287 289 290 291 292 294 296 297 299 300 301 302 301 301 301 301 301 300 300 299 298 297 295 294 293 293 294 294 295 296 296 296 296 297 297 298 299 299 300 301 300 300 299 298 296
238 238 239 240 241 242 244 245 246 248 249 250 251 251 252 252 252 252 252 253 254 256 259 262 263 264 267 270 272 274 275 275 274 276 277 278 277 277 278 282 284 286 288 288 289 290 292 294 296 297 298 299 299 298 298 298 298 298 298 298 298 297 295 294 293 293 293 294 295 295 295 295 294 294 294 295 295 296 297 299 299 300 299 298 297 296
238 239 240 241 242 243 244 246 247 248 249 249 250 251 251 252 252 251 251 252 254 257 260 263 265 265 265 269 273 275 274 273 274 275 277 276 275 275 277 281 284 286 287 287 287 288 290 293 295 296 297 298 297 296 296 296 296 296 296 296 296 296 294 293 292 292 293 294 294 295 295 294 293 292 291 292 293 294 295 296 298 300 300 300 298 297
238 239 240 241 242 243 244 245 246 247 248 249 250 250 251 251 251 252 252 253 255 258 261 263 265 265 265 268 273 274 272 272 274 276 275 274 273 273 276 280 283 285 286 285 286 287 289 292 293 294 295 296 295 295 295 295 295 295 295 296 296 296 294 293 292 292 292 294 294 294 295 294 293 291 291 292 292 292 294 296 298 300 301 301 300 299
239 240 241 241 243 244 244 245 246 247 248 250 251 252 252 252 252 252 253 254 256 259 261 263 264 266 266 265 269 274 273 273 275 274 272 271 271 274 277 281 283 284 284 283 284 286 287 289 291 292 293 293 293 293 293 293 293 294 295 296 296 295 294 293 292 292 293 293 294 294 295 295 294 293 293 293 293 293 295 297 299 300 301 301 301 301
240 240 241 242 243 244 245 247 248 249 250 251 252 252 252 252 252 253 254 255 258 259 261 263 264 266 266 261 267 276 276 273 272 270 269 270 272 276 279 281 281 281 281 281 282 283 285 286 288 289 291 291 292 292 291 292 293 294 295 295 295 294 293 292 292 292 293 293 294 295 295 296 296 295 295 295 295 296 297 298 299 300 301 301 301 301
239 240 242 243 244 246 247 248 249 250 250 250 251 252 252 253 254 255 256 257 258 259 260 262 264 267 267 261 264 273 273 272 270 267 268 270 273 276 279 280 280 279 279 279 280 282 283 285 286 287 289 289 290 290 290 291 293 293 293 294 294 294 293 292 292 292 293 294 295 295 295 296 296 296 296 297 297 298 299 300 300 300 300 299 299 299
242 243 244 245 246 247 248 249 250 250 251 252 252 253 254 255 255 255 256 257 258 259 260 262 265 268 267 262 262 266 269 271 271 270 270 271 273 275 277 278 279 278 278 278 280 281 282 283 284 286 287 288 288 288 289 290 291 292 292 293 293 293 292 292 293 293 294 295 295 295 295 295 295 296 297 298 298 299 300 300 300 299 298 298 298 298
243 244 245 246 247 247 248 249 250 250 251 251 252 253 253 254 254 254 255 257 258 260 261 264 266 268 266 263 262 262 263 265 268 270 271 272 274 276 277 279 279 277 277 278 279 280 281 282 284 285 286 286 286 287 288 289 291 292 292 292 292 292 292 293 294 294 294 294 294 293 294 294 295 295 296 297 298 299 299 299 298 298 297 296 297 297
242 243 244 245 245 246 246 247 248 249 249 250 250 251 252 253 254 256 257 259 261 263 264 266 267 266 263 262 262 260 258 260 264 268 270 272 274 275 277 278 278 278 278 278 278 279 281 282 283 283 284 284 285 286 288 290 291 292 292 292 291 291 291 292 293 293 293 293 293 293 293 294 295 295 296 297 298 298 298 297 296 296 295 295 296 297
242 242 243 245 245 246 247 248 248 249 250 251 251 251 252 254 256 258 259 261 262 264 265 265 265 263 261 261 261 258 256 257 261 265 269 272 273 274 275 275 276 277 278 278 279 280 281 281 282 282 282 283 285 286 288 290 291 292 291 291 290 290 291 291 292 292 292 292 293 293 294 294 295 295 296 297 297 297 296 296 295 295 295 295 296 297
240 241 242 244 245 246 247 248 249 250 250 251 251 252 253 255 257 259 260 261 262 263 264 264 264 263 262 261 258 257 257 257 259 262 266 269 271 273 274 274 274 275 276 276 277 279 280 280 281 282 283 284 286 288 289 290 290 290 290 289 289 289 290 290 291 291 291 292 293 293 293 294 294 294 295 296 296 296 295 295 295 295 295 296 297 298
238 239 239 240 242 243 245 246 248 249 250 250 251 253 254 256 258 259 261 262 263 264 264 263 263 263 262 258 256 256 257 258 259 261 263 266 268 271 272 273 273 274 274 274 275 276 278 279 280 282 283 285 287 288 289 289 289 289 289 288 288 289 289 289 289 290 290 291 291 292 292 292 293 293 294 295 295 295 295 295 295 295 296 297 298 299
237 238 239 240 241 243 245 247 248 249 250 252 253 254 256 257 259 260 262 263 263 263 263 262 260 260 259 258 257 257 257 258 259 261 262 263 265 267 269 270 271 272 273 273 274 275 277 278 280 282 285 287 288 288 289 289 289 289 289 288 288 288 288 287 287 288 288 289 290 290 290 291 292 293 294 294 294 293 294 294 294 295 297 298 298 298
238 239 240 241 242 244 246 247 248 249 251 253 255 256 257 258 260 260 261 261 261 261 261 260 258 256 257 258 258 258 258 258 258 259 260 262 263 264 265 267 267 269 270 271 273 275 277 279 281 284 285 286 286 287 287 288 288 288 288 288 288 288 287 286 286 287 288 288 289 289 290 291 292 292 293 292 292 292 293 293 294 295 296 297 297 297
240 240 241 242 243 244 246 247 248 250 252 254 255 256 257 258 259 259 259 258 258 258 258 259 258 255 254 256 257 257 258 258 258 259 260 261 261 262 263 264 266 267 268 270 272 273 276 279 282 284 285 285 285 285 286 287 286 287 287 287 287 287 286 286 286 286 287 288 288 289 290 290 291 291 291 291 291 291 292 292 293 294 295 295 296 296
242 242 243 244 244 245 246 247 249 250 252 253 255 256 256 256 257 257 257 256 256 256 257 258 258 255 252 254 256 257 258 258 259 260 260 259 260 261 263 264 266 268 270 271 271 273 276 279 281 282 282 282 283 284 286 286 286 286 286 286 286 285 284 284 284 285 286 286 287 288 288 289 289 290 290 290 290 291 291 292 293 294 294 295 295 295
242 243 243 243 244 244 246 247 248 250 251 252 253 253 253 254 254 254 255 255 255 256 256 258 259 257 254 254 255 257 259 261 261 261 260 261 261 262 264 266 268 270 270 271 271 274 277 279 279 279 278 279 281 283 284 284 284 285 285 285 284 283 283 283 283 284 285 285 286 286 287 287 288 288 288 289 290 290 291 292 292 293 294 294 295 295
242 243 243 243 243 244 245 247 248 248 249 249 249 250 251 251 252 253 254 254 256 257 258 259 260 259 258 258 258 259 260 261 262 263 263 263 263 264 265 266 267 268 269 270 273 275 277 278 277 277 277 278 280 281 281 281 281 282 282 281 280 280 281 281 282 282 283 283 284 285 285 285 286 287 288 289 289 290 291 291 292 293 293 294 294 294
243 243 244 244 244 245 245 246 246 247 248 249 249 250 251 252 254 255 255 257 258 259 259 260 261 260 259 261 261 259 259 259 260 262 263 264 265 265 266 266 267 268 269 272 274 276 276 276 275 276 277 278 278 279 279 279 280 280 279 278 278 278 279 279 280 280 281 282 282 283 284 285 286 287 288 288 289 289 290 290 291 292 292 293 293 293
244 244 245 245 246 246 245 246 246 247 249 250 250 251 252 253 254 255 257 258 260 259 259 260 261 260 260 262 262 261 260 260 260 260 261 264 265 266 267 267 268 270 271 272 273 273 274 274 275 276 277 277 277 278 278 278 277 277 277 277 277 277 278 278 279 279 280 281 282 283 284 285 286 287 287 288 288 288 289 289 290 291 292 292 292 293
245 245 246 246 246 247 247 247 247 248 249 250 250 251 252 253 254 256 258 259 260 260 261 261 262 262 262 262 263 263 263 262 260 260 261 263 265 267 268 268 270 271 272 273 273 273 273 274 275 276 276 277 277 277 276 275 275 274 275 276 276 276 277 277 278 279 280 281 282 282 283 284 285 286 286 286 287 288 288 289 290 291 291 291 291 292
245 246 246 247 247 247 247 248 248 248 249 250 251 251 252 253 254 256 257 259 260 261 262 262 262 263 264 263 262 261 261 261 262 263 264 264 265 266 268 269 270 271 272 273 273 274 275 275 276 276 277 276 276 275 274 274 273 274 274 275 275 276 277 277 278 279 280 281 282 282 283 283 284 285 285 286 286 287 288 289 290 290 290 291 291 292
245 246 247 247 248 248 248 249 249 249 250 250 251 251 253 254 256 257 258 259 260 261 262 262 262 263 264 264 262 261 262 263 265 266 266 265 265 266 268 270 271 272 272 272 273 274 275 276 276 276 275 275 275 275 274 274 274 274 275 275 276 277 277 278 279 280 281 281 282 282 283 283 284 284 285 285 285 286 286 287 288 289 289 290 291 291
246 246 247 248 249 249 250 250 251 251 251 251 252 253 255 256 257 258 259 259 260 261 262 262 263 264 264 263 263 264 265 266 265 265 265 266 267 269 271 272 272 272 272 272 273 273 273 273 274 274 275 275 275 275 275 275 276 276 276 277 277 278 279 279 280 281 281 282 282 282 283 283 283 284 284 284 284 285 285 286 287 287 288 289 290 290
247 248 249 249 250 251 251 252 252 252 252 252 253 255 256 257 258 259 259 260 261 262 262 263 264 264 263 263 264 266 266 265 265 265 266 268 270 271 271 271 271 271 272 272 272 272 273 273 274 274 275 275 276 276 277 277 277 277 277 278 278 278 279 280 280 281 281 281 282 282 283 283 283 283 284 284 285 285 286 286 287 287 288 288 289 289
249 249 250 250 251 252 252 252 253 254 254 254 255 256 256 257 258 259 260 261 262 262 263 264 264 264 264 264 265 265 265 266 266 267 268 269 269 269 269 270 270 271 271 272 272 273 273 273 274 274 275 275 276 276 277 277 277 278 278 278 278 279 279 279 280 280 280 280 281 282 282 283 283 284 284 285 285 286 286 287 287 287 287 287 287 287
250 250 251 251 252 253 253 253 254 255 256 257 257 257 257 258 258 259 260 260 261 262 263 263 264 264 265 265 266 266 267 267 267 268 268 268 268 268 268 269 269 270 270 271 272 272 273 273 273 274 274 274 275 275 276 276 276 276 277 277 277 277 278 278 279 279 279 280 280 281 281 282 283 284 284 285 285 286 286 286 286 287 287 287 287 287
251 252 252 252 253 254 254 255 255 256 257 258 258 258 259 259 260 260 260 260 261 262 262 263 264 265 265 265 266 266 266 267 267 268 268 268 268 268 268 268 269 269 269 270 270 271 272 272 272 273 273 273 273 274 274 275 275 275 276 276 276 277 277 278 278 279 279 280 280 281 281 281 282 283 283 284 284 285 285 286 286 286 286 286 286 286
252 253 254 254 254 255 255 256 256 257 257 257 259 260 261 261 261 261 261 261 261 262 263 263 264 264 264 264 264 264 264 265 266 267 268 269 269 269 269 269 269 269 269 269 269 270 270 271 271 272 272 273 273 273 274 274 275 275 276 276 276 277 277 277 278 278 279 279 280 280 280 281 281 281 282 282 283 283 284 284 285 285 285 285 285 285
252 253 254 255 255 255 256 256 257 257 257 258 259 260 260 261 262 262 262 262 262 262 263 264 264 264 263 263 263 263 263 264 264 265 266 267 267 268 268 269 269 269 269 270 269 270 270 270 271 271 272 272 273 273 273 273 274 274 275 275 275 276 276 276 277 277 277 278 278 279 279 280 280 281 281 281 282 282 282 283 283 283 283 284 284 284
253 253 254 254 255 256 257 258 258 259 259 260 260 261 261 261 262 262 262 263 263 263 264 264 264 265 264 264 264 264 264 264 264 264 265 265 265 266 266 267 268 268 269 270 270 270 271 271 271 271 272 272 272 272 272 272 273 273 273 274 274 275 275 275 276 276 276 277 277 277 278 278 279 279 280 280 280 281 281 282 282 282 283 283 283 283
253 254 254 255 256 256 257 258 259 259 260 260 261 262 262 262 262 262 263 263 264 264 265 265 265 266 266 266 266 266 266 266 265 265 265 265 266 266 266 266 266 267 267 268 269 269 270 270 271 271 271 271 271 271 272 272 272 272 272 273 273 273 274 274 275 275 275 276 276 277 277 277 278 278 279 279 280 280 280 281 281 281 281 281 281 281
254 254 255 255 256 256 257 257 258 259 259 260 261 261 262 263 263 263 264 264 265 265 265 265 265 266 266 266 267 267 267 267 267 267 267 267 267 268 268 268 268 268 268 268 268 268 269 269 269 270 270 270 270 270 270 270 271 271 271 271 271 272 272 273 273 274 274 274 275 275 275 276 276 277 277 278 278 278 279 279 279 279 279 279 279 279
254 254 255 256 256 257 258 258 258 258 259 260 261 261 261 262 262 263 264 264 264 265 265 265 266 266 267 267 267 268 268 268 268 268 267 268 268 268 269 269 269 269 269 270 270 270 270 270 270 270 270 270 269 269 269 269 269 270 270 270 271 270 271 271 271 271 272 272 273 273 273 274 274 274 275 275 276 276 276 277 277 277 278 278 278 278
254 255 255 256 257 258 258 259 259 259 259 259 259 259 260 260 261 262 263 263 264 264 265 265 266 266 267 267 268 268 268 268 268 268 268 267 267 267 267 268 268 268 268 269 269 269 269 269 270 270 270 271 270 270 269 269 268 269 269 270 270 270 270 270 270 270 270 270 271 271 271 272 272 273 273 273 274 274 274 275 276 276 277 277 277 278
254 255 256 257 258 258 259 259 260 260 259 258 258 259 259 260 261 262 263 263 264 264 265 265 266 266 267 267 268 268 268 268 268 269 269 268 268 268 268 268 268 268 267 267 267 266 266 266 266 266 267 268 268 268 268 267 267 267 268 268 268 268 268 268 269 269 269 269 269 270 270 271 271 271 272 272 272 273 273 274 274 275 276 277 277 277
255 256 257 257 257 258 258 259 260 260 260 260 260 260 260 261 262 263 263 264 264 265 265 266 266 267 267 267 268 268 268 269 269 269 269 269 270 270 270 270 271 271 270 270 269 269 268 267 266 266 266 267 268 268 268 267 267 267 268 268 269 269 269 269 269 269 269 270 270 270 271 271 272 272 273 273 273 273 274 274 275 276 276 277 278 278
255 256 257 257 258 258 259 260 261 262 262 262 262 262 261 262 262 263 264 265 265 266 267 267 268 268 268 269 269 269 270 270 270 271 271 271 271 272 273 273 274 274 275 275 275 275 274 273 272 272 271 272 273 273 273 272 272 271 271 272 273 273 273 273 273 273 273 273 273 274 274 275 276 276 276 277 277 277 277 277 278 278 279 279 279 280
258 258 259 260 260 261 261 262 263 264 264 264 264 264 263 263 264 265 265 266 267 268 268 269 269 270 270 270 270 271 272 272 273 274 274 275 275 275 276 277 277 278 279 279 279 279 279 279 279 278 278 278 279 279 279 279 279 278 278 278 278 279 279 280 280 280 280 280 280 280 280 280 281 281 281 282 282 282 282 282 282 282 282 282 282 282
259 260 260 261 261 262 263 264 264 265 265 266 266 266 265 265 265 266 267 268 268 269 270 270 271 271 272 272 272 273 273 274 275 275 276 277 278 278 279 279 280 280 281 281 282 282 282 282 282 282 282 282 282 282 283 283 283 283 283 282 283 283 283 284 284 284 284 285 285 284 284 284 284 284 284 284 284 284 284 284 284 284 284 283 283 283
258 259 261 262 262 263 264 264 265 265 266 266 266 266 266 267 267 268 268 269 270 271 271 272 272 272 273 273 274 274 275 276 276 277 277 278 279 279 280 280 280 281 281 281 281 281 282 282 282 282 282 282 282 283 283 283 284 284 284 284 284 284 284 284 284 284 284 284 284 284 284 284 284 284 284 284 284 284 284 284 284 284 284 283 283 283
258 259 261 261 262 263 263 264 264 265 265 266 266 267 267 268 268 269 270 270 271 271 272 272 273 273 274 274 275 275 276 276 277 277 278 278 279 279 280 280 280 281 281 281 281 281 281 281 281 282 282 282 282 282 282 282 283 283 283 283 283 283 283 283 283 283 283 283 283 283 283 283 283 283 283 283 283 283 283 283 283 283 283 283 283 283
258 259 260 260 261 262 262 263 263 264 265 266 266 267 268 268 269 269 270 270 271 271 272 272 273 274 274 275 275 276 276 276 277 277 278 278 279 279 279 280 280 280 281 281 281 281 281 281 281 281 281 281 281 281 281 281 281 281 281 281 281 281 281 281 281 281 281 281 281 281 281 281 281 281 281 281 281 281 282 282 282 282 282 282 282 282
Height
10756 10760 10763 10765 10766 10769 10772 10777 10783 10786 10788 10791 10793 10795 10797 10798 10799 10802 10804 10806 10808 10809 10810 10811 10810 10809 10812 10814 10815 10815 10814 10813 10815 10816 10816 10816 10815 10814 10814 10815 10815 10815 10815 10814 10813 10813 10813 10812 10812 10812 10812 10811 10809 10807 10806 10804 10802 10801 10799 10798 10797 10795 10793 10791 10789 10788 10786 10785 10783 10781 10780 10778 10777 10776 10775 10775 10774 10772 10770 10769 10768 10767 10765 10764 10763 10762
10751 10754 10756 10757 10761 10765 10769 10774 10779 10781 10781 10784 10786 10789 10791 10793 10795 10798 10800 10802 10804 10805 10806 10807 10806 10804 10806 10810 10812 10811 10809 10809 10811 10811 10811 10812 10811 10810 10811 10812 10811 10811 10811 10811 10810 10810 10810 10809 10809 10808 10808 10807 10806 10805 10803 10802 10800 10799 10798 10796 10795 10793 10791 10789 10787 10785 10783 10781 10779 10777 10775 10773 10772 10771 10770 10770 10770 10769 10767 10765 10764 10763 10761 10760 10759 10758
10745 10747 10748 10752 10757 10761 10764 10768 10772 10774 10775 10777 10780 10783 10786 10788 10790 10793 10795 10797 10799 10800 10802 10803 10802 10799 10801 10805 10807 10808 10806 10804 10806 10806 10806 10807 10807 10807 10808 10807 10807 10807 10807 10807 10806 10806 10806 10806 10806 10805 10804 10803 10802 10801 10800 10799 10798 10796 10795 10794 10792 10791 10789 10787 10785 10783 10780 10778 10776 10774 10772 10770 10768 10767 10766 10766 10766 10765 10764 10763 10761 10759 10757 10756 10755 10754
10737 10738 10742 10749 10753 10755 10759 10762 10765 10768 10769 10771 10774 10778 10782 10784 10785 10787 10790 10791 10793 10796 10798 10800 10799 10795 10796 10800 10802 10804 10803 10800 10801 10800 10800 10802 10802 10803 10803 10802 10803 10803 10804 10803 10802 10802 10802 10802 10802 10802 10801 10799 10798 10797 10796 10795 10794 10793 10792 10791 10789 10787 10786 10784 10783 10780 10778 10776 10773 10771 10769 10767 10765 10763 10762 10762 10761 10761 10760 10759 10758 10755 10753 10751 10750 10749
10731 10734 10740 10745 10747 10750 10754 10756 10759 10761 10763 10765 10768 10772 10776 10778 10780 10781 10783 10785 10788 10792 10795 10796 10796 10792 10791 10795 10796 10798 10800 10797 10796 10795 10795 10797 10798 10799 10798 10797 10799 10799 10799 10798 10798 10797 10797 10797 10797 10797 10797 10795 10794 10793 10791 10791 10790 10789 10788 10787 10785 10783 10781 10780 10779 10777 10775 10773 10771 10769 10767 10765 10762 10760 10759 10758 10757 10756 10755 10755 10754 10753 10751 10748 10746 10744
10727 10731 10736 10738 10741 10744 10748 10750 10752 10754 10757 10759 10763 10766 10769 10772 10775 10776 10777 10780 10784 10788 10789 10791 10794 10790 10786 10789 10789 10792 10796 10794 10792 10790 10788 10791 10793 10794 10793 10793 10794 10795 10794 10794 10793 10793 10793 10792 10792 10792 10791 10791 10790 10789 10787 10786 10786 10785 10784 10782 10780 10779 10777 10775 10774 10772 10771 10769 10768 10766 10764 10762 10760 10758 10755 10753 10752 10751 10750 10749 10748 10748 10747 10746 10743 10740
10722 10726 10730 10732 10734 10737 10740 10743 10744 10747 10750 10754 10757 10759 10762 10766 10770 10771 10772 10775 10779 10783 10784 10786 10791 10788 10782 10783 10784 10786 10791 10791 10789 10785 10782 10786 10789 10789 10788 10788 10790 10790 10790 10789 10789 10788 10788 10787 10787 10787 10786 10786 10785 10784 10783 10782 10781 10780 10779 10778 10776 10775 10773 10771 10769 10767 10766 10765 10763 10762 10760 10759 10758 10756 10753 10750 10747 10746 10744 10744 10743 10743 10742 10742 10740 10738
10715 10718 10722 10724 10726 10729 10732 10735 10737 10741 10744 10749 10752 10753 10757 10760 10763 10766 10767 10770 10773 10776 10779 10782 10785 10785 10779 10775 10777 10783 10786 10785 10783 10780 10778 10780 10783 10783 10781 10782 10784 10785 10785 10785 10784 10784 10783 10783 10782 10782 10782 10781 10781 10780 10779 10777 10776 10776 10775 10774 10772 10770 10769 10767 10765 10762 10761 10760 10758 10757 10756 10755 10754 10753 10750 10747 10744 10742 10740 10738 10738 10737 10736 10736 10735 10734
10705 10710 10713 10716 10719 10722 10726 10729 10733 10736 10740 10744 10745 10747 10750 10753 10756 10760 10761 10764 10767 10771 10775 10776 10778 10782 10778 10768 10770 10780 10782 10778 10776 10775 10775 10776 10777 10777 10776 10776 10778 10780 10781 10780 10780 10779 10779 10778 10777 10777 10777 10776 10776 10775 10774 10773 10772 10771 10771 10769 10768 10766 10765 10763 10760 10758 10756 10755 10753 10752 10751 10751 10750 10749 10746 10744 10741 10738 10736 10734 10733 10732 10731 10730 10730 10729
10699 10704 10708 10711 10714 10717 10721 10724 10728 10730 10734 10736 10737 10740 10742 10745 10749 10752 10755 10758 10761 10767 10770 10769 10770 10778 10778 10765 10763 10774 10776 10771 10770 10770 10771 10771 10771 10771 10770 10771 10772 10773 10775 10774 10774 10774 10774 10773 10772 10771 10770 10770 10770 10769 10769 10768 10767 10766 10766 10765 10763 10762 10760 10758 10756 10754 10752 10751 10749 10747 10747 10746 10745 10744 10741 10739 10737 10735 10733 10730 10729 10727 10725 10724 10724 10723
10694 10698 10702 10706 10708 10711 10713 10717 10720 10722 10725 10728 10730 10733 10735 10738 10741 10744 10749 10751 10755 10763 10765 10762 10762 10771 10778 10767 10757 10764 10767 10765 10765 10766 10765 10763 10764 10765 10765 10767 10768 10767 10768 10768 10769 10769 10768 10768 10766 10765 10764 10763 10763 10762 10762 10761 10760 10760 10760 10759 10758 10757 10755 10753 10751 10750 10748 10746 10744 10743 10742 10741 10739 10738 10736 10733 10731 10730 10728 10726 10725 10723 10721 10719 10717 10716
10689 10692 10697 10700 10701 10703 10705 10708 10711 10714 10718 10721 10724 10726 10728 10732 10734 10738 10743 10744 10750 10758 10757 10756 10755 10764 10778 10768 10752 10754 10759 10760 10761 10758 10757 10756 10756 10758 10760 10763 10763 10762 10762 10763 10763 10763 10763 10762 10760 10758 10757 10757 10757 10756 10755 10755 10754 10754 10753 10753 10752 10751 10750 10747 10745 10744 10743 10741 10740 10738 10736 10734 10732 10731 10729 10727 10725 10724 10723 10721 10719 10717 10715 10713 10711 10710
10681 10684 10687 10690 10692 10695 10697 10700 10704 10708 10713 10714 10716 10718 10720 10723 10726 10731 10735 10738 10745 10750 10750 10750 10748 10757 10773 10766 10753 10750 10747 10751 10755 10751 10749 10750 10750 10751 10753 10756 10757 10756 10757 10757 10757 10757 10756 10755 10754 10752 10751 10751 10750 10750 10749 10748 10748 10748 10747 10746 10746 10745 10744 10742 10740 10738 10737 10736 10734 10732 10730 10728 10725 10723 10721 10720 10718 10717 10716 10715 10713 10711 10709 10707 10705 10703
10671 10674 10679 10683 10686 10688 10691 10693 10697 10699 10702 10704 10707 10708 10712 10716 10721 10726 10729 10731 10737 10740 10742 10743 10742 10753 10766 10761 10757 10751 10736 10736 10745 10745 10744 10743 10744 10745 10745 10748 10750 10751 10751 10750 10750 10749 10748 10748 10747 10747 10746 10745 10744 10743 10743 10742 10742 10741 10740 10740 10738 10738 10737 10736 10734 10733 10731 10730 10728 10726 10724 10721 10719 10716 10714 10713 10711 10710 10709 10708 10706 10704 10703 10701 10699 10697
10666 10670 10675 10678 10680 10682 10682 10684 10686 10688 10692 10696 10700 10703 10708 10712 10715 10718 10719 10721 10726 10730 10735 10738 10741 10751 10756 10753 10755 10752 10735 10727 10730 10734 10737 10737 10736 10737 10738 10741 10743 10744 10743 10743 10742 10741 10740 10740 10740 10739 10739 10738 10737 10737 10737 10736 10736 10735 10734 10733 10731 10730 10729 10728 10727 10727 10725 10724 10722 10719 10717 10715 10712 10710 10708 10706 10704 10704 10702 10701 10699 10697 10696 10694 10692 10691
10660 10665 10668 10668 10670 10672 10673 10674 10676 10680 10685 10689 10692 10697 10702 10703 10704 10706 10709 10713 10717 10721 10729 10734 10740 10746 10746 10744 10748 10748 10738 10727 10723 10725 10726 10727 10728 10728 10730 10733 10734 10734 10735 10734 10733 10732 10732 10732 10732 10731 10730 10730 10730 10730 10730 10730 10729 10729 10728 10726 10724 10723 10721 10720 10720 10719 10718 10717 10715 10712 10710 10708 10706 10704 10702 10700 10698 10696 10695 10693 10692 10690 10689 10687 10686 10685
10652 10655 10655 10655 10658 10661 10662 10663 10666 10670 10675 10680 10685 10690 10693 10692 10693 10697 10702 10707 10709 10714 10722 10729 10735 10739 10736 10736 10740 10740 10736 10729 10723 10720 10717 10717 10719 10721 10724 10725 10722 10723 10724 10724 10724 10724 10724 10723 10722 10722 10721 10721 10722 10721 10722 10722 10722 10721 10720 10719 10717 10716 10715 10713 10712 10711 10710 10709 10707 10705 10703 10701 10699 10697 10695 10693 10691 10689 10687 10686 10685 10683 10682 10680 10679 10678
10642 10644 10645 10646 10649 10651 10653 10656 10659 10663 10668 10674 10681 10685 10684 10684 10686 10689 10694 10699 10701 10706 10714 10720 10726 10729 10730 10733 10733 10731 10731 10727 10722 10718 10713 10710 10712 10714 10718 10718 10715 10714 10714 10713 10714 10714 10714 10713 10712 10712 10712 10713 10714 10714 10714 10715 10715 10714 10713 10712 10710 10708 10707 10705 10703 10702 10701 10700 10698 10697 10695 10693 10691 10689 10687 10686 10684 10682 10679 10678 10677 10676 10674 10673 10673 10671
10632 10635 10638 10640 10642 10644 10645 10648 10653 10659 10663 10668 10672 10673 10674 10676 10678 10680 10682 10688 10693 10697 10705 10712 10717 10722 10726 10728 10725 10721 10723 10721 10717 10714 10711 10707 10706 10707 10709 10709 10708 10707 10706 10705 10705 10704 10704 10703 10701 10701 10702 10704 10705 10706 10707 10707 10708 10707 10706 10705 10703 10701 10699 10697 10694 10693 10692 10691 10690 10688 10686 10684 10683 10681 10679 10678 10676 10673 10671 10669 10668 10667 10666 10666 10665 10664
10619 10623 10627 10631 10632 10632 10635 10640 10648 10654 10654 10657 10660 10661 10663 10666 10669 10671 10673 10679 10684 10689 10698 10705 10711 10717 10720 10718 10716 10715 10715 10712 10709 10709 10707 10705 10704 10702 10700 10700 10698 10698 10697 10697 10696 10695 10695 10693 10693 10692 10693 10695 10696 10697 10698 10699 10700 10700 10699 10698 10696 10694 10692 10689 10686 10684 10683 10683 10682 10680 10678 10677 10675 10673 10671 10669 10666 10663 10661 10660 10659 10658 10657 10656 10655 10655
10607 10612 10617 10623 10624 10625 10632 10639 10643 10643 10642 10645 10648 10652 10657 10659 10661 10665 10667 10672 10677 10681 10689 10697 10705 10714 10712 10706 10706 10707 10706 10705 10703 10703 10701 10701 10700 10697 10693 10692 10690 10689 10688 10687 10686 10686 10685 10684 10685 10686 10686 10687 10687 10687 10688 10690 10690 10690 10689 10688 10688 10687 10684 10681 10679 10677 10676 10676 10675 10672 10670 10669 10667 10665 10663 10660 10657 10653 10652 10651 10650 10649 10648 10646 10645 10644
10600 10605 10609 10614 10619 10625 10631 10631 10630 10630 10633 10638 10640 10645 10652 10653 10654 10657 10660 10666 10669 10671 10678 10685 10697 10710 10705 10696 10697 10698 10697 10698 10696 10696 10695 10694 10693 10689 10686 10685 10683 10682 10680 10678 10677 10676 10676 10676 10677 10678 10679 10679 10678 10679 10680 10682 10682 10681 10681 10680 10679 10678 10675 10672 10670 10669 10668 10667 10666 10663 10661 10660 10658 10657 10655 10651 10647 10645 10643 10642 10641 10640 10639 10637 10635 10634
10591 10595 10601 10606 10613 10620 10620 10618 10622 10626 10629 10631 10635 10641 10645 10644 10647 10649 10652 10657 10656 10660 10669 10671 10686 10706 10700 10687 10688 10689 10688 10689 10688 10687 10687 10685 10683 10680 10677 10676 10675 10674 10674 10672 10671 10669 10669 10671 10672 10672 10671 10669 10669 10671 10673 10675 10675 10674 10673 10672 10670 10668 10665 10662 10661 10660 10659 10658 10656 10654 10653 10651 10650 10648 10646 10641 10638 10636 10634 10632 10631 10631 10630 10628 10626 10624
10581 10587 10596 10602 10607 10610 10610 10612 10618 10621 10623 10627 10632 10637 10636 10636 10638 10636 10638 10644 10644 10651 10661 10660 10674 10697 10693 10679 10680 10679 10677 10678 10678 10678 10675 10672 10672 10670 10668 10668 10667 10666 10666 10664 10663 10663 10665 10668 10669 10667 10664 10661 10661 10663 10665 10666 10665 10665 10665 10663 10661 10658 10655 10653 10652 10651 10650 10649 10648 10646 10644 10642 10641 10640 10637 10632 10629 10627 10624 10622 10621 10621 10620 10618 10616 10614
10573 10579 10588 10593 10596 10599 10602 10607 10615 10618 10620 10622 10624 10625 10624 10624 10624 10622 10626 10629 10631 10644 10653 10649 10665 10687 10683 10673 10672 10669 10668 10669 10667 10665 10662 10660 10662 10661 10659 10660 10660 10659 10657 10654 10654 10657 10661 10663 10664 10662 10659 10658 10659 10659 10660 10659 10657 10657 10656 10654 10651 10648 10645 10643 10642 10642 10641 10640 10639 10638 10636 10633 10632 10630 10627 10623 10619 10617 10615 10613 10611 10610 10609 10607 10605 10603
10563 10569 10577 10581 10586 10594 10600 10604 10610 10610 10605 10605 10609 10611 10611 10610 10610 10612 10614 10614 10624 10642 10644 10641 10658 10674 10669 10664 10665 10661 10659 10659 10657 10653 10650 10650 10651 10651 10650 10651 10651 10649 10647 10646 10649 10652 10655 10656 10654 10653 10653 10654 10656 10656 10655 10653 10652 10651 10649 10646 10642 10639 10637 10634 10633 10633 10632 10631 10630 10628 10626 10624 10622 10622 10620 10615 10610 10607 10605 10603 10601 10600 10598 10596 10594 10592
10554 10561 10568 10573 10580 10589 10594 10594 10595 10593 10589 10593 10602 10603 10601 10601 10601 10602 10603 10610 10626 10635 10631 10635 10650 10657 10657 10655 10652 10648 10646 10647 10647 10643 10639 10640 10640 10639 10639 10638 10637 10638 10640 10642 10645 10646 10646 10645 10644 10644 10646 10647 10648 10649 10648 10646 10645 10644 10641 10637 10633 10631 10629 10626 10624 10624 10622 10621 10621 10619 10616 10614 10613 10613 10613 10607 10601 10597 10595 10593 10591 10590 10587 10585 10583 10580
10546 10552 10559 10566 10571 10577 10581 10582 10583 10583 10582 10587 10592 10592 10591 10592 10592 10592 10597 10610 10619 10614 10616 10633 10636 10636 10648 10649 10634 10630 10634 10636 10635 10632 10630 10632 10630 10627 10625 10624 10627 10630 10632 10634 10637 10637 10635 10635 10636 10637 10638 10639 10640 10641 10640 10639 10636 10633 10629 10626 10623 10621 10619 10616 10615 10615 10613 10612 10612 10609 10606 10604 10603 10604 10604 10600 10593 10587 10584 10583 10582 10579 10576 10573 10571 10568
10536 10542 10549 10555 10557 10562 10567 10570 10572 10574 10573 10575 10579 10580 10582 10582 10584 10588 10595 10605 10603 10595 10607 10626 10620 10619 10640 10640 10620 10616 10622 10622 10620 10619 10621 10622 10619 10615 10613 10615 10619 10622 10623 10625 10626 10625 10625 10626 10627 10628 10629 10630 10631 10632 10631 10629 10625 10621 10619 10617 10613 10611 10608 10606 10607 10606 10603 10603 10603 10601 10598 10596 10594 10593 10593 10591 10585 10578 10573 10572 10571 10569 10566 10562 10559 10557
10525 10531 10538 10541 10543 10548 10552 10556 10561 10562 10562 10564 10567 10569 10571 10574 10579 10586 10591 10594 10589 10585 10599 10610 10604 10609 10626 10623 10609 10605 10606 10606 10607 10607 10609 10609 10607 10605 10606 10609 10613 10614 10614 10614 10614 10613 10614 10615 10616 10617 10618 10618 10618 10618 10618 10616 10613 10611 10609 10607 10604 10602 10599 10598 10598 10596 10594 10594 10592 10590 10589 10587 10585 10583 10582 10581 10577 10570 10564 10560 10559 10558 10554 10551 10549 10546
10514 10518 10523 10528 10530 10533 10539 10544 10548 10549 10549 10552 10554 10557 10564 10570 10575 10580 10583 10583 10578 10578 10586 10589 10589 10603 10613 10603 10594 10594 10592 10594 10598 10598 10596 10594 10592 10594 10599 10605 10607 10605 10604 10604 10604 10604 10604 10603 10602 10603 10603 10602 10602 10603 10603 10602 10601 10600 10598 10596 10594 10591 10589 10588 10588 10586 10584 10582 10580 10578 10577 10575 10574 10572 10570 10568 10566 10562 10557 10552 10549 10546 10543 10541 10538 10536
10504 10507 10511 10515 10515 10521 10530 10531 10531 10534 10534 10535 10542 10554 10563 10566 10568 10570 10570 10569 10567 10569 10571 10571 10577 10596 10599 10583 10579 10587 10586 10584 10588 10587 10582 10580 10582 10586 10593 10596 10595 10593 10593 10594 10594 10594 10592 10590 10589 10589 10589 10588 10588 10588 10589 10589 10589 10588 10586 10585 10582 10580 10578 10577 10576 10574 10572 10569 10566 10565 10563 10562 10561 10560 10557 10554 10552 10551 10548 10544 10540 10536 10533 10530 10528 10526
10494 10497 10502 10504 10503 10512 10520 10516 10516 10518 10514 10520 10542 10557 10557 10555 10556 10556 10555 10557 10559 10557 10555 10558 10568 10581 10580 10571 10574 10583 10578 10569 10570 10573 10572 10574 10577 10580 10582 10581 10579 10580 10582 10581 10580 10579 10578 10578 10577 10578 10578 10576 10575 10575 10575 10576 10576 10575 10574 10572 10570 10568 10567 10565 10564 10563 10560 10556 10553 10551 10549 10547 10547 10546 10543 10541 10539 10537 10536 10533 10529 10525 10522 10519 10517 10515
10482 10487 10493 10493 10492 10499 10505 10504 10503 10497 10495 10516 10544 10549 10543 10544 10545 10542 10543 10548 10548 10543 10541 10547 10555 10561 10564 10564 10567 10570 10566 10558 10556 10560 10565 10568 10569 10567 10566 10566 10566 10568 10569 10568 10566 10565 10565 10565 10565 10564 10565 10563 10562 10563 10562 10562 10562 10562 10560 10559 10557 10556 10555 10553 10551 10549 10547 10543 10541 10538 10536 10534 10532 10530 10528 10526 10525 10523 10522 10519 10516 10513 10510 10508 10505 10503
10471 10474 10478 10481 10482 10485 10489 10490 10485 10480 10492 10517 10530 10529 10529 10533 10532 10530 10533 10538 10536 10530 10530 10532 10538 10547 10552 10554 10555 10555 10554 10549 10545 10547 10551 10554 10555 10554 10553 10553 10552 10554 10557 10556 10554 10553 10552 10552 10552 10551 10551 10550 10549 10550 10550 10549 10548 10548 10547 10545 10544 10543 10541 10540 10538 10535 10532 10530 10529 10527 10524 10522 10519 10517 10515 10512 10510 10509 10507 10505 10503 10501 10498 10496 10493 10491
10462 10463 10464 10468 10471 10472 10473 10474 10472 10477 10492 10504 10507 10512 10519 10520 10518 10517 10518 10522 10522 10518 10517 10520 10527 10536 10540 10541 10543 10542 10539 10536 10532 10531 10535 10538 10539 10540 10540 10540 10540 10541 10543 10543 10542 10540 10539 10538 10538 10538 10537 10536 10535 10535 10536 10535 10535 10535 10533 10531 10530 10530 10528 10526 10524 10521 10518 10517 10516 10513 10511 10510 10508 10506 10503 10500 10498 10496 10493 10491 10489 10487 10484 10482 10480 10478
10452 10453 10453 10454 10457 10459 10460 10460 10462 10465 10475 10489 10499 10505 10506 10504 10501 10497 10495 10503 10509 10507 10506 10511 10516 10520 10522 10525 10528 10528 10526 10524 10520 10519 10522 10524 10523 10524 10524 10524 10524 10525 10526 10528 10529 10529 10527 10526 10525 10524 10524 10523 10521 10521 10522 10522 10521 10521 10519 10517 10516 10516 10515 10512 10510 10508 10506 10505 10502 10498 10496 10496 10495 10493 10491 10488 10486 10483 10481 10478 10476 10474 10471 10469 10467 10465
10440 10440 10441 10439 10440 10444 10444 10444 10446 10448 10460 10485 10497 10493 10489 10486 10481 10476 10475 10483 10494 10495 10495 10498 10498 10499 10503 10506 10509 10513 10513 10513 10511 10510 10512 10512 10509 10510 10511 10509 10508 10509 10510 10511 10514 10515 10514 10514 10513 10511 10510 10510 10508 10507 10508 10509 10508 10507 10506 10503 10502 10502 10500 10498 10496 10495 10494 10492 10488 10485 10484 10481 10480 10478 10476 10475 10473 10470 10468 10466 10464 10462 10459 10457 10455 10453
10424 10424 10427 10425 10424 10430 10432 10431 10435 10439 10453 10476 10480 10473 10474 10472 10464 10459 10456 10463 10478 10483 10479 10479 10479 10479 10483 10486 10491 10495 10496 10498 10500 10499 10498 10498 10496 10496 10498 10497 10496 10496 10496 10497 10499 10499 10499 10499 10499 10498 10496 10495 10494 10492 10492 10493 10494 10493 10492 10490 10488 10487 10485 10483 10483 10482 10480 10477 10475 10473 10471 10468 10466 10465 10463 10461 10459 10457 10455 10454 10451 10449 10448 10446 10444 10441
10410 10410 10412 10411 10411 10419 10422 10420 10422 10428 10444 10460 10461 10458 10459 10453 10445 10442 10440 10450 10468 10468 10460 10462 10464 10462 10465 10468 10471 10475 10476 10478 10482 10482 10482 10483 10481 10480 10483 10484 10484 10484 10484 10485 10485 10486 10486 10486 10485 10484 10482 10480 10479 10478 10477 10478 10479 10479 10477 10476 10475 10472 10470 10470 10471 10468 10466 10465 10463 10461 10458 10456 10454 10452 10450 10448 10446 10444 10442 10441 10439 10437 10435 10433 10431 10429
10394 10395 10397 10398 10399 10404 10406 10406 10409 10416 10432 10446 10446 10445 10444 10434 10424 10425 10430 10441 10450 10445 10443 10448 10447 10445 10449 10451 10453 10456 10457 10459 10462 10464 10465 10467 10465 10465 10466 10467 10468 10469 10469 10470 10471 10472 10474 10474 10473 10472 10469 10466 10465 10465 10464 10465 10466 10465 10464 10463 10461 10458 10457 10459 10458 10455 10453 10453 10451 10448 10446 10444 10442 10440 10437 10435 10433 10431 10429 10427 10425 10423 10421 10419 10417 10415
10381 10383 10383 10385 10387 10389 10392 10393 10393 10403 10423 10436 10432 10430 10429 10417 10407 10412 10421 10425 10426 10425 10428 10432 10430 10430 10434 10435 10438 10440 10441 10442 10444 10446 10449 10452 10452 10451 10450 10451 10453 10454 10455 10456 10457 10457 10460 10461 10460 10458 10456 10453 10451 10451 10452 10453 10453 10452 10450 10449 10446 10444 10445 10446 10444 10442 10441 10439 10437 10435 10433 10431 10429 10427 10425 10423 10420 10418 10416 10414 10412 10410 10407 10405 10403 10401
10369 10368 10368 10373 10378 10378 10378 10377 10378 10392 10415 10423 10414 10410 10410 10402 10397 10403 10408 10408 10408 10411 10413 10414 10416 10418 10418 10420 10423 10425 10426 10427 10428 10430 10434 10437 10437 10438 10437 10437 10439 10441 10442 10443 10443 10444 10447 10449 10448 10446 10442 10439 10437 10437 10438 10440 10441 10439 10436 10433 10430 10429 10431 10431 10429 10428 10427 10425 10423 10422 10420 10418 10416 10414 10412 10409 10407 10405 10403 10400 10398 10395 10393 10391 10388 10386
10354 10355 10359 10366 10369 10365 10362 10364 10369 10380 10394 10399 10397 10397 10396 10390 10389 10392 10393 10394 10395 10396 10397 10399 10402 10403 10404 10406 10408 10409 10411 10413 10413 10415 10419 10420 10422 10424 10424 10424 10425 10426 10428 10429 10429 10430 10432 10435 10436 10434 10431 10426 10422 10421 10422 10424 10426 10426 10423 10418 10416 10415 10416 10415 10414 10413 10412 10410 10409 10407 10405 10404 10402 10399 10397 10394 10392 10390 10388 10385 10383 10380 10377 10375 10372 10370
10344 10348 10349 10351 10352 10350 10349 10353 10359 10365 10373 10379 10384 10385 10381 10377 10376 10377 10378 10379 10379 10380 10382 10384 10386 10389 10392 10394 10394 10394 10396 10397 10398 10401 10404 10405 10407 10407 10408 10410 10410 10410 10411 10411 10411 10411 10413 10416 10419 10419 10417 10414 10407 10404 10405 10407 10409 10410 10408 10404 10401 10400 10400 10399 10398 10397 10396 10394 10392 10391 10389 10387 10385 10383 10380 10378 10375 10374 10372 10369 10367 10364 10361 10358 10355 10352
10332 10336 10336 10335 10337 10338 10341 10345 10350 10354 10358 10362 10365 10366 10364 10362 10362 10363 10363 10363 10363 10366 10368 10369 10370 10374 10376 10378 10380 10381 10380 10380 10382 10385 10387 10390 10392 10391 10391 10393 10393 10393 10394 10394 10393 10393 10394 10397 10399 10400 10401 10399 10393 10387 10387 10388 10389 10390 10390 10388 10384 10383 10382 10381 10381 10379 10378 10376 10374 10372 10370 10369 10367 10365 10362 10360 10358 10356 10354 10352 10349 10346 10343 10340 10337 10334
10320 10323 10324 10324 10325 10328 10332 10337 10339 10339 10341 10343 10344 10345 10347 10347 10348 10349 10350 10350 10350 10352 10353 10353 10355 10357 10358 10361 10364 10366 10366 10366 10367 10369 10371 10373 10374 10375 10375 10376 10377 10377 10376 10376 10376 10376 10376 10378 10380 10381 10382 10382 10378 10372 10369 10370 10370 10369 10369 10369 10367 10365 10364 10363 10362 10361 10360 10357 10355 10353 10352 10350 10348 10346 10344 10341 10339 10337 10335 10333 10330 10327 10325 10322 10319 10316
10308 10308 10308 10311 10314 10317 10321 10325 10325 10324 10325 10326 10326 10326 10327 10331 10334 10336 10336 10337 10337 10338 10338 10339 10340 10340 10341 10343 10346 10349 10351 10351 10352 10356 10358 10358 10358 10359 10359 10360 10361 10362 10361 10359 10359 10359 10360 10361 10363 10363 10364 10364 10362 10357 10354 10354 10353 10350 10350 10350 10349 10348 10348 10347 10345 10344 10342 10340 10338 10336 10334 10332 10330 10328 10326 10323 10321 10319 10316 10314 10311 10308 10306 10304 10301 10299
10294 10294 10296 10299 10303 10307 10310 10311 10311 10310 10309 10308 10307 10307 10310 10315 10320 10322 10322 10324 10324 10323 10322 10324 10325 10325 10326 10327 10329 10332 10335 10336 10337 10340 10343 10345 10344 10343 10343 10344 10345 10346 10346 10345 10343 10343 10344 10345 10346 10348 10349 10348 10345 10341 10340 10340 10338 10334 10332 10332 10331 10331 10331 10331 10329 10328 10327 10324 10322 10320 10318 10315 10313 10311 10309 10307 10304 10301 10298 10296 10293 10290 10288 10286 10284 10282
10283 10285 10288 10289 10289 10292 10297 10298 10295 10292 10292 10292 10292 10292 10296 10300 10305 10307 10308 10309 10308 10308 10308 10308 10309 10310 10312 10313 10315 10317 10319 10321 10322 10324 10327 10330 10329 10327 10328 10329 10329 10329 10329 10327 10326 10327 10327 10327 10328 10330 10332 10331 10329 10326 10325 10325 10322 10318 10315 10313 10313 10313 10313 10313 10312 10311 10310 10308 10305 10303 10301 10299 10296 10294 10291 10289 10287 10284 10281 10279 10276 10273 10271 10269 10267 10266
10273 10274 10274 10274 10274 10277 10280 10281 10279 10279 10280 10279 10278 10279 10282 10285 10288 10290 10292 10292 10292 10293 10294 10294 10295 10296 10296 10298 10300 10302 10304 10306 10307 10308 10311 10313 10313 10311 10312 10312 10312 10312 10311 10309 10308 10308 10308 10308 10308 10309 10311 10312 10311 10310 10309 10309 10307 10302 10297 10295 10296 10295 10295 10294 10293 10292 10290 10288 10287 10285 10283 10281 10279 10276 10274 10272 10270 10267 10265 10263 10260 10257 10254 10252 10251 10251